Darstellungsparameter: Aktuell verwendete Einstellungen:
Skalierung der Graphiken ... ?
xyx+y,   Skalierungsfaktor:      Skalierung: Modus: x, Faktor: 1
Darstellungszeitraum ... ?
Vom - - bis: - -   Zeitraum: 15.06.2021 - 15.06.2021
Min/Max/Avg-Anzeige ... ?
Zeige MMA aktuell
Zeige MMA Monat
Zeige MMA alles
Zeige --A aktuell
Zeige --A Monat
Zeige --A alles
Keine MMA-Anzeige
MMA:
Keine MMA-Graphiken
MMA-Basis: 15.06.2021 - 15.06.2021
Quicknavigation für Darstellung... ?
Tage:      1T, 2T, 3T, 5T -1T -2T -3T -5T +1T +2T +3T +5T
Wochen: 1W, 2W, 3W -1W -2W -3W +1W +2W +3W
Monate: 1M, 3M, 6M -1M -3M -6M +1M +3M +6M
Jahre:    1J, 3J, 5J, 10J -1J -3J -5J -10J +1J +3J +5J +10J
Nutze für die Darstellung ... ?
Originaldaten oder Mittelwerte auf ...
Stundenbasis Tagesbasis Wochenbasis
Monatsbasis Jahresbasis      Datenbasis: Original-Daten
Darstellen als:
Statistik (Auto) Statistik J:M      Darstellung:
Zur Graphik,    zurück zur Übersicht aller Sensoren.
 
Tabellarische Datenbersicht: ?
 
Sensor: Nr:Datum:Temp:Feuchte:Taupunkt:
Aussen-T/F 1 15-06-2021 00:00:00 17 C 79 % 13.33 C
2 15-06-2021 00:05:00 16.9 C 79 % 13.24 C
3 15-06-2021 00:10:00 16.8 C 80 % 13.33 C
4 15-06-2021 00:15:00 16.7 C 80 % 13.23 C
5 15-06-2021 00:20:00 16.6 C 81 % 13.33 C
6 15-06-2021 00:25:00 16.5 C 81 % 13.23 C
7 15-06-2021 00:30:00 16.5 C 82 % 13.42 C
8 15-06-2021 00:35:00 16.4 C 82 % 13.32 C
9 15-06-2021 00:40:00 16.4 C 82 % 13.32 C
10 15-06-2021 00:45:00 16.3 C 82 % 13.22 C
11 15-06-2021 00:50:00 16.3 C 82 % 13.22 C
12 15-06-2021 00:55:00 16.2 C 82 % 13.13 C
13 15-06-2021 01:00:00 16.2 C 83 % 13.31 C
14 15-06-2021 01:05:00 16.1 C 83 % 13.21 C
15 15-06-2021 01:10:00 16 C 83 % 13.12 C
16 15-06-2021 01:15:00 16 C 84 % 13.3 C
17 15-06-2021 01:20:00 15.9 C 84 % 13.2 C
18 15-06-2021 01:25:00 15.9 C 84 % 13.2 C
19 15-06-2021 01:30:00 15.9 C 85 % 13.38 C
20 15-06-2021 01:35:00 15.9 C 85 % 13.38 C
21 15-06-2021 01:40:00 15.8 C 84 % 13.1 C
22 15-06-2021 01:45:00 15.7 C 85 % 13.19 C
23 15-06-2021 01:50:00 15.7 C 85 % 13.19 C
24 15-06-2021 01:55:00 15.6 C 85 % 13.09 C
25 15-06-2021 02:00:00 15.5 C 85 % 12.99 C
Sensor: Nr:Datum:Temp:Feuchte:Taupunkt:
Aussen-T/F 26 15-06-2021 02:05:00 15.4 C 85 % 12.89 C
27 15-06-2021 02:10:00 15.3 C 86 % 12.97 C
28 15-06-2021 02:15:00 15.3 C 86 % 12.97 C
29 15-06-2021 02:20:00 15.3 C 86 % 12.97 C
30 15-06-2021 02:25:00 15.3 C 87 % 13.15 C
31 15-06-2021 02:30:00 15.3 C 86 % 12.97 C
32 15-06-2021 02:35:00 15.2 C 86 % 12.88 C
33 15-06-2021 02:40:00 15.2 C 87 % 13.05 C
34 15-06-2021 02:45:00 15.1 C 87 % 12.95 C
35 15-06-2021 02:50:00 15.1 C 87 % 12.95 C
36 15-06-2021 02:55:00 14.9 C 87 % 12.76 C
37 15-06-2021 03:00:00 14.9 C 87 % 12.76 C
38 15-06-2021 03:05:00 14.8 C 88 % 12.83 C
39 15-06-2021 03:10:00 14.8 C 87 % 12.66 C
40 15-06-2021 03:15:00 14.7 C 87 % 12.56 C
41 15-06-2021 03:20:00 14.6 C 88 % 12.64 C
42 15-06-2021 03:25:00 14.6 C 88 % 12.64 C
43 15-06-2021 03:30:00 14.6 C 88 % 12.64 C
44 15-06-2021 03:35:00 14.5 C 88 % 12.54 C
45 15-06-2021 03:40:00 14.4 C 89 % 12.61 C
46 15-06-2021 03:45:00 14.4 C 89 % 12.61 C
47 15-06-2021 03:50:00 14.5 C 89 % 12.71 C
48 15-06-2021 03:55:00 14.5 C 90 % 12.88 C
49 15-06-2021 04:00:00 14.6 C 89 % 12.81 C
50 15-06-2021 04:05:00 14.5 C 89 % 12.71 C
Sensor: Nr:Datum:Temp:Feuchte:Taupunkt:
Aussen-T/F 51 15-06-2021 04:10:00 14.4 C 89 % 12.61 C
52 15-06-2021 04:15:00 14.3 C 90 % 12.68 C
53 15-06-2021 04:20:00 14.3 C 90 % 12.68 C
54 15-06-2021 04:25:00 14.3 C 90 % 12.68 C
55 15-06-2021 04:30:00 14.2 C 90 % 12.58 C
56 15-06-2021 04:35:00 14.1 C 90 % 12.49 C
57 15-06-2021 04:40:00 14.1 C 90 % 12.49 C
58 15-06-2021 04:45:00 14 C 91 % 12.56 C
59 15-06-2021 04:50:00 13.9 C 91 % 12.46 C
60 15-06-2021 04:55:00 13.9 C 91 % 12.46 C
61 15-06-2021 05:00:00 13.8 C 91 % 12.36 C
62 15-06-2021 05:05:00 13.8 C 91 % 12.36 C
63 15-06-2021 05:10:00 13.8 C 92 % 12.52 C
64 15-06-2021 05:15:00 13.8 C 92 % 12.52 C
65 15-06-2021 05:20:00 13.8 C 92 % 12.52 C
66 15-06-2021 05:25:00 13.7 C 92 % 12.42 C
67 15-06-2021 05:30:00 13.7 C 92 % 12.42 C
68 15-06-2021 05:35:00 13.7 C 92 % 12.42 C
69 15-06-2021 05:40:00 13.7 C 92 % 12.42 C
70 15-06-2021 05:45:00 13.7 C 92 % 12.42 C
71 15-06-2021 05:50:00 13.7 C 92 % 12.42 C
72 15-06-2021 05:55:00 13.7 C 92 % 12.42 C
73 15-06-2021 06:00:00 13.7 C 92 % 12.42 C
74 15-06-2021 06:05:00 13.7 C 93 % 12.59 C
75 15-06-2021 06:10:00 13.7 C 93 % 12.59 C
Sensor: Nr:Datum:Temp:Feuchte:Taupunkt:
Aussen-T/F 76 15-06-2021 06:15:00 13.7 C 93 % 12.59 C
77 15-06-2021 06:20:00 13.7 C 93 % 12.59 C
78 15-06-2021 06:25:00 13.8 C 93 % 12.69 C
79 15-06-2021 06:30:00 13.8 C 93 % 12.69 C
80 15-06-2021 06:35:00 13.9 C 93 % 12.79 C
81 15-06-2021 06:40:00 14 C 93 % 12.89 C
82 15-06-2021 06:45:00 14.1 C 94 % 13.15 C
83 15-06-2021 06:50:00 14.2 C 93 % 13.08 C
84 15-06-2021 06:55:00 14.3 C 94 % 13.35 C
85 15-06-2021 07:00:00 14.4 C 94 % 13.45 C
86 15-06-2021 07:05:00 14.6 C 94 % 13.65 C
87 15-06-2021 07:10:00 14.6 C 94 % 13.65 C
88 15-06-2021 07:15:00 14.7 C 94 % 13.74 C
89 15-06-2021 07:20:00 14.8 C 94 % 13.84 C
90 15-06-2021 07:25:00 14.9 C 93 % 13.78 C
91 15-06-2021 07:30:00 15.1 C 93 % 13.98 C
92 15-06-2021 07:35:00 15.2 C 93 % 14.08 C
93 15-06-2021 07:40:00 15.3 C 93 % 14.18 C
94 15-06-2021 07:45:00 15.3 C 93 % 14.18 C
95 15-06-2021 07:50:00 15.4 C 92 % 14.11 C
96 15-06-2021 07:55:00 15.6 C 92 % 14.31 C
97 15-06-2021 08:00:00 15.8 C 91 % 14.33 C
98 15-06-2021 08:05:00 15.9 C 90 % 14.26 C
99 15-06-2021 08:10:00 16.1 C 89 % 14.29 C
100 15-06-2021 08:15:00 16.3 C 89 % 14.48 C
Sensor: Nr:Datum:Temp:Feuchte:Taupunkt:
Aussen-T/F 101 15-06-2021 08:20:00 16.4 C 88 % 14.41 C
102 15-06-2021 08:25:00 16.7 C 88 % 14.7 C
103 15-06-2021 08:30:00 16.9 C 87 % 14.72 C
104 15-06-2021 08:35:00 17.1 C 87 % 14.92 C
105 15-06-2021 08:40:00 17.2 C 87 % 15.02 C
106 15-06-2021 08:45:00 17.4 C 85 % 14.85 C
107 15-06-2021 08:50:00 17.6 C 84 % 14.87 C
108 15-06-2021 08:55:00 17.8 C 84 % 15.06 C
109 15-06-2021 09:00:00 18 C 83 % 15.07 C
110 15-06-2021 09:05:00 18.2 C 82 % 15.08 C
111 15-06-2021 09:10:00 18.4 C 82 % 15.27 C
112 15-06-2021 09:15:00 18.7 C 82 % 15.57 C
113 15-06-2021 09:20:00 18.9 C 82 % 15.76 C
114 15-06-2021 09:25:00 19.2 C 81 % 15.86 C
115 15-06-2021 09:30:00 19.4 C 79 % 15.66 C
116 15-06-2021 09:35:00 19.6 C 78 % 15.66 C
117 15-06-2021 09:40:00 19.8 C 77 % 15.65 C
118 15-06-2021 09:45:00 19.9 C 76 % 15.54 C
119 15-06-2021 09:50:00 19.9 C 76 % 15.54 C
120 15-06-2021 09:55:00 20 C 76 % 15.64 C
121 15-06-2021 10:00:00 20.1 C 76 % 15.74 C
122 15-06-2021 10:05:00 20.1 C 76 % 15.74 C
123 15-06-2021 10:10:00 20.2 C 76 % 15.83 C
124 15-06-2021 10:15:00 20.3 C 75 % 15.72 C
125 15-06-2021 10:20:00 20.5 C 74 % 15.71 C
Sensor: Nr:Datum:Temp:Feuchte:Taupunkt:
Aussen-T/F 126 15-06-2021 10:25:00 20.7 C 74 % 15.9 C
127 15-06-2021 10:30:00 20.9 C 74 % 16.09 C
128 15-06-2021 10:35:00 21.3 C 73 % 16.26 C
129 15-06-2021 10:40:00 21.7 C 71 % 16.21 C
130 15-06-2021 10:45:00 21.9 C 71 % 16.4 C
131 15-06-2021 10:50:00 22.2 C 71 % 16.69 C
132 15-06-2021 10:55:00 22.2 C 70 % 16.47 C
133 15-06-2021 11:00:00 22.3 C 70 % 16.56 C
134 15-06-2021 11:05:00 22.4 C 70 % 16.66 C
135 15-06-2021 11:10:00 22.6 C 69 % 16.62 C
136 15-06-2021 11:15:00 22.7 C 68 % 16.49 C
137 15-06-2021 11:20:00 22.6 C 67 % 16.16 C
138 15-06-2021 11:25:00 22.6 C 69 % 16.62 C
139 15-06-2021 11:30:00 22.7 C 69 % 16.72 C
140 15-06-2021 11:35:00 22.8 C 69 % 16.82 C
141 15-06-2021 11:40:00 22.9 C 69 % 16.91 C
142 15-06-2021 11:45:00 23 C 68 % 16.78 C
143 15-06-2021 11:50:00 23.1 C 69 % 17.1 C
144 15-06-2021 11:55:00 23.2 C 69 % 17.2 C
145 15-06-2021 12:00:00 23.3 C 67 % 16.83 C
146 15-06-2021 12:05:00 23.3 C 67 % 16.83 C
147 15-06-2021 12:10:00 23.4 C 67 % 16.92 C
148 15-06-2021 12:15:00 23.5 C 66 % 16.78 C
149 15-06-2021 12:20:00 23.6 C 66 % 16.88 C
150 15-06-2021 12:25:00 23.7 C 66 % 16.97 C
Sensor: Nr:Datum:Temp:Feuchte:Taupunkt:
Aussen-T/F 151 15-06-2021 12:30:00 23.9 C 65 % 16.92 C
152 15-06-2021 12:35:00 24.1 C 65 % 17.11 C
153 15-06-2021 12:40:00 24.2 C 65 % 17.2 C
154 15-06-2021 12:45:00 24.3 C 64 % 17.05 C
155 15-06-2021 12:50:00 24.6 C 63 % 17.09 C
156 15-06-2021 12:55:00 24.7 C 62 % 16.93 C
157 15-06-2021 13:00:00 24.8 C 63 % 17.28 C
158 15-06-2021 13:05:00 24.9 C 63 % 17.37 C
159 15-06-2021 13:10:00 24.9 C 61 % 16.86 C
160 15-06-2021 13:15:00 25.2 C 62 % 17.4 C
161 15-06-2021 13:20:00 25.3 C 61 % 17.24 C
162 15-06-2021 13:25:00 25.4 C 60 % 17.07 C
163 15-06-2021 13:30:00 25.6 C 61 % 17.52 C
164 15-06-2021 13:35:00 25.8 C 59 % 17.18 C
165 15-06-2021 13:40:00 25.8 C 57 % 16.64 C
166 15-06-2021 13:45:00 25.8 C 56 % 16.36 C
167 15-06-2021 13:50:00 25.8 C 57 % 16.64 C
168 15-06-2021 13:55:00 25.9 C 56 % 16.45 C
169 15-06-2021 14:00:00 26.1 C 57 % 16.92 C
170 15-06-2021 14:05:00 26.1 C 56 % 16.64 C
171 15-06-2021 14:10:00 26.2 C 57 % 17.01 C
172 15-06-2021 14:15:00 26.4 C 54 % 16.34 C
173 15-06-2021 14:20:00 26.4 C 53 % 16.05 C
174 15-06-2021 14:25:00 26.3 C 56 % 16.82 C
175 15-06-2021 14:30:00 26.3 C 56 % 16.82 C
Sensor: Nr:Datum:Temp:Feuchte:Taupunkt:
Aussen-T/F 176 15-06-2021 14:35:00 26.4 C 55 % 16.63 C
177 15-06-2021 14:40:00 26.7 C 53 % 16.33 C
178 15-06-2021 14:45:00 26.8 C 52 % 16.12 C
179 15-06-2021 14:50:00 26.9 C 52 % 16.21 C
180 15-06-2021 14:55:00 26.9 C 53 % 16.51 C
181 15-06-2021 15:00:00 27.2 C 50 % 15.87 C
182 15-06-2021 15:05:00 27.3 C 51 % 16.28 C
183 15-06-2021 15:10:00 27.4 C 49 % 15.74 C
184 15-06-2021 15:15:00 27.5 C 50 % 16.15 C
185 15-06-2021 15:20:00 27.6 C 49 % 15.92 C
186 15-06-2021 15:25:00 27.7 C 51 % 16.64 C
187 15-06-2021 15:30:00 27.8 C 51 % 16.73 C
188 15-06-2021 15:35:00 28.2 C 50 % 16.79 C
189 15-06-2021 15:40:00 28.3 C 50 % 16.88 C
190 15-06-2021 15:45:00 28.5 C 49 % 16.75 C
191 15-06-2021 15:50:00 28.6 C 49 % 16.84 C
192 15-06-2021 15:55:00 28.3 C 50 % 16.88 C
193 15-06-2021 16:00:00 28.3 C 49 % 16.56 C
194 15-06-2021 16:05:00 28.4 C 49 % 16.65 C
195 15-06-2021 16:10:00 28.7 C 50 % 17.25 C
196 15-06-2021 16:15:00 28.8 C 48 % 16.69 C
197 15-06-2021 16:20:00 28.9 C 49 % 17.11 C
198 15-06-2021 16:25:00 29 C 47 % 16.55 C
199 15-06-2021 16:30:00 29 C 46 % 16.21 C
200 15-06-2021 16:35:00 28.9 C 47 % 16.45 C
Sensor: Nr:Datum:Temp:Feuchte:Taupunkt:
Aussen-T/F 201 15-06-2021 16:40:00 29 C 48 % 16.88 C
202 15-06-2021 16:45:00 29.1 C 45 % 15.95 C
203 15-06-2021 16:50:00 29.1 C 46 % 16.3 C
204 15-06-2021 16:55:00 29.2 C 45 % 16.04 C
205 15-06-2021 17:00:00 29.1 C 45 % 15.95 C
206 15-06-2021 17:05:00 29.1 C 47 % 16.64 C
207 15-06-2021 17:10:00 29.2 C 46 % 16.39 C
208 15-06-2021 17:15:00 29.3 C 45 % 16.13 C
209 15-06-2021 17:20:00 29.4 C 45 % 16.23 C
210 15-06-2021 17:25:00 29.3 C 46 % 16.48 C
211 15-06-2021 17:30:00 29.1 C 46 % 16.3 C
212 15-06-2021 17:35:00 28.9 C 46 % 16.12 C
213 15-06-2021 17:40:00 28.8 C 47 % 16.36 C
214 15-06-2021 17:45:00 28.9 C 47 % 16.45 C
215 15-06-2021 17:50:00 29 C 47 % 16.55 C
216 15-06-2021 17:55:00 28.9 C 49 % 17.11 C
217 15-06-2021 18:00:00 28.9 C 49 % 17.11 C
218 15-06-2021 18:05:00 28.8 C 48 % 16.69 C
219 15-06-2021 18:10:00 28.9 C 49 % 17.11 C
220 15-06-2021 18:15:00 28.8 C 46 % 16.03 C
221 15-06-2021 18:20:00 28.8 C 45 % 15.68 C
222 15-06-2021 18:25:00 28.9 C 48 % 16.79 C
223 15-06-2021 18:30:00 28.9 C 47 % 16.45 C
224 15-06-2021 18:35:00 28.8 C 49 % 17.02 C
225 15-06-2021 18:40:00 28.7 C 47 % 16.27 C
Sensor: Nr:Datum:Temp:Feuchte:Taupunkt:
Aussen-T/F 226 15-06-2021 18:45:00 28.5 C 48 % 16.42 C
227 15-06-2021 18:50:00 28.4 C 48 % 16.33 C
228 15-06-2021 18:55:00 28.3 C 49 % 16.56 C
229 15-06-2021 19:00:00 28.1 C 50 % 16.7 C
230 15-06-2021 19:05:00 27.9 C 50 % 16.51 C
231 15-06-2021 19:10:00 27.8 C 51 % 16.73 C
232 15-06-2021 19:15:00 27.7 C 51 % 16.64 C
233 15-06-2021 19:20:00 27.7 C 51 % 16.64 C
234 15-06-2021 19:25:00 27.6 C 52 % 16.86 C
235 15-06-2021 19:30:00 27.4 C 52 % 16.67 C
236 15-06-2021 19:35:00 27.3 C 53 % 16.88 C
237 15-06-2021 19:40:00 27.2 C 53 % 16.79 C
238 15-06-2021 19:45:00 27.2 C 54 % 17.08 C
239 15-06-2021 19:50:00 27.1 C 55 % 17.28 C
240 15-06-2021 19:55:00 27 C 54 % 16.9 C
241 15-06-2021 20:00:00 26.9 C 55 % 17.09 C
242 15-06-2021 20:05:00 26.8 C 54 % 16.71 C
243 15-06-2021 20:10:00 26.7 C 56 % 17.19 C
244 15-06-2021 20:15:00 26.7 C 55 % 16.91 C
245 15-06-2021 20:20:00 26.6 C 55 % 16.82 C
246 15-06-2021 20:25:00 26.6 C 56 % 17.1 C
247 15-06-2021 20:30:00 26.5 C 56 % 17.01 C
248 15-06-2021 20:35:00 26.4 C 56 % 16.92 C
249 15-06-2021 20:40:00 26.3 C 56 % 16.82 C
250 15-06-2021 20:45:00 26.2 C 56 % 16.73 C
Sensor: Nr:Datum:Temp:Feuchte:Taupunkt:
Aussen-T/F 251 15-06-2021 20:50:00 26.1 C 59 % 17.46 C
252 15-06-2021 20:55:00 26 C 63 % 18.41 C
253 15-06-2021 21:00:00 25.8 C 62 % 17.97 C
254 15-06-2021 21:05:00 25.5 C 64 % 18.19 C
255 15-06-2021 21:10:00 25.2 C 65 % 18.15 C
256 15-06-2021 21:15:00 24.8 C 66 % 18.01 C
257 15-06-2021 21:20:00 24.3 C 67 % 17.78 C
258 15-06-2021 21:25:00 23.9 C 68 % 17.63 C
259 15-06-2021 21:30:00 23.4 C 70 % 17.62 C
260 15-06-2021 21:35:00 23.2 C 71 % 17.65 C
261 15-06-2021 21:40:00 22.8 C 71 % 17.27 C
262 15-06-2021 21:45:00 22.6 C 72 % 17.3 C
263 15-06-2021 21:50:00 22.4 C 72 % 17.1 C
264 15-06-2021 21:55:00 22.2 C 72 % 16.91 C
265 15-06-2021 22:00:00 22.1 C 73 % 17.03 C
266 15-06-2021 22:05:00 21.8 C 73 % 16.75 C
267 15-06-2021 22:10:00 21.7 C 74 % 16.86 C
268 15-06-2021 22:15:00 21.6 C 74 % 16.77 C
269 15-06-2021 22:20:00 21.4 C 74 % 16.57 C
270 15-06-2021 22:25:00 21.3 C 75 % 16.69 C
271 15-06-2021 22:30:00 21.2 C 75 % 16.59 C
272 15-06-2021 22:35:00 21.1 C 76 % 16.7 C
273 15-06-2021 22:40:00 20.9 C 77 % 16.72 C
274 15-06-2021 22:45:00 20.8 C 77 % 16.62 C
275 15-06-2021 22:50:00 20.7 C 78 % 16.73 C
Sensor: Nr:Datum:Temp:Feuchte:Taupunkt:
Aussen-T/F 276 15-06-2021 22:55:00 20.6 C 78 % 16.63 C
277 15-06-2021 23:00:00 20.6 C 78 % 16.63 C
278 15-06-2021 23:05:00 20.5 C 78 % 16.53 C
279 15-06-2021 23:10:00 20.4 C 79 % 16.64 C
280 15-06-2021 23:15:00 20.4 C 79 % 16.64 C
281 15-06-2021 23:20:00 20.3 C 79 % 16.54 C
282 15-06-2021 23:25:00 20.3 C 79 % 16.54 C
283 15-06-2021 23:30:00 20.2 C 80 % 16.64 C
284 15-06-2021 23:35:00 20.1 C 80 % 16.54 C
285 15-06-2021 23:40:00 20 C 80 % 16.44 C
286 15-06-2021 23:45:00 19.9 C 81 % 16.54 C
287 15-06-2021 23:50:00 19.8 C 81 % 16.45 C
288 15-06-2021 23:55:00 19.7 C 81 % 16.35 C

Legende:
   Min
   Max


Maximal/Minimal-Werte vom 15.06.2021 - 15.06.2021

Sensor Min Max Avg
Temp
(Aussen-T/F)
13.7 °C
15-06-2021  05:25:00
29.4 °C
15-06-2021  17:20:00
21.18 °C
Feuchte
(Aussen-T/F)
45 %
15-06-2021  16:45:00
94 %
15-06-2021  06:45:00
71.65 %
Taupunkt
(Aussen-T/F)
12.36 C
15-06-2021  05:00:00
18.41 C
15-06-2021  20:55:00
15.28 C

Die Daten stammen von einer Davis Vantage Pro 2 Wetter-Station und werden unter Linux mit der Software wview2wettercgi und aufbereitet. Alle Angaben erfolgen ohne Gewähr für ihre Vollständigkeit oder Richtigkeit.
Kontakt: Rainer Krienke krienke@uni-koblenz.de . Meine Webseiten an der Uni Koblenz oder privat.
Version: $Revision: 0.78 $